COSMOS 1261 DEB, 27796

Orbit data source: Space-Track

COSMOS 1261 DEB, 27796 is space debris in HEO originally from a launch on Tue, 31 Mar 1981 UTC launched from the Plesetsk Missile And Space Complex (PKMTR). Debris objects in space refer to the collection of defunct objects orbiting the Earth. Examples of debris include non-operational satellites, rocket bodies, and fragments generated from explosions, collisions, or faulty payload assembly.

Loading next visibility...
Identifier
27796, 1981-031H
Orbit
HEO
Country
Flag of CISCIS
Related business
Manufacturer
Unknown
Mission
Spacecraft
Bus & Motor
Unknown
Mass
Unknown
Launch date (UTC)
1981-03-31 (45 years ago)
Launch vehicle
Unknown
Launch site
Plesetsk Missile And Space Complex (PKMTR)
Object type
Payload
Rocket body
Debris
Shape & HBR
Unknown shape, 0.5 m
Radar Cross Section
Medium (>0.1 m² and <1 m²)

Expand to show TLE details & history
Last TLE update: 3 days ago

TLE from 3 days ago
0 COSMOS 1261 DEB
1 27796U 81031H   26130.26525854  .00000828  00000-0  00000-0 0  9991
2 27796  65.4017 358.8369 6955212  17.3148 357.8985  2.01759615185108
Epoch: 2026-05-10T06:21Z
TLE epoch observation values (Epoch: 2026-05-10T06:21:58.337Z)
Latitude
0.00008°
Longitude
35.28509°
Altitude
1,816.58 km
Speed
9.068 km/s
True Right ascension
23h 55m 23s
True Declination
0° 00' 00"
Sunlit
Object was in daylight at epoch
Visualization orbit readout
Latitude
Unknown
Longitude
Unknown
Altitude
Unknown
Speed
Unknown
Apparent Right ascension
Unknown
Apparent Declination
Unknown
Sunlit
N/A
Visualization observer readout
Local Sidereal Time
15:25:42
Azimuth
Unknown
Elevation
Unknown
Doppler factor
Unknown
Orbital elements
Apogee altitude
38,475.55 km
Perigee altitude
1,676.611 km
Semi-major axis
26,454.218 km
Eccentricity
0.69552
Inclination
65.4017°
RAAN
358.8369°
Arg. of periapsis
17.3148°
True anomaly
343.8889°
Mean anomaly
357.8985°
Eccentric anomaly
353.13553°
Mean motion
0.50443 °/min
Orbital period
713.68 mins
BSTAR
0
Loading maneuver chart data...
Computing Atmospheric mass density...
Loading historical data...
Loading historical data...
Loading historical data...
Loading historical data...
Loading historical data...
Loading historical data...
Loading historical data...

Documentation

Showing up to 5 results
|